CAPE
0 0 0 0 0 0 0 0 0 0 0 0 0 0 183 1161 1472 1524 1501 1577 1565 1659 1527 1574 1506 1433 1464 1469 1359 1339 926 565 260 123 38 8 3 25 193 392 789 920 971 706
0 0 0 0 0 0 0 0 0 0 0 0 0 0 27 887 1534 1637 1616 1601 1589 1698 1506 1614 1458 1482 1502 1543 1526 1214 960 590 160 53 8 33 37 31 112 555 930 927 846 648
0 0 0 0 0 0 0 0 0 0 0 2 0 0 0 0 247 1095 1473 1608 1671 1757 1639 1546 1825 1519 1529 1484 1515 1313 1202 560 118 0 3 19 12 18 396 713 565 435 474 472
0 0 0 0 0 0 0 0 0 0 0 0 0 0 0 12 22 982 1458 1571 1701 1810 1594 1629 2174 1660 1559 1510 1593 1555 1007 404 91 10 0 13 57 602 725 627 391 334 350 373
0 0 0 0 0 0 0 0 0 0 0 0 0 0 0 99 760 1301 1563 1632 1706 1691 1635 1873 2211 2122 2150 2071 1726 1692 973 325 202 11 38 126 593 902 837 417 327 268 204 88
0 0 0 0 0 0 0 0 0 0 0 0 0 0 0 22 383 1320 1623 1774 1755 1786 1791 2041 2255 2241 2000 1846 1864 1710 976 367 408 69 123 460 1128 864 585 454 350 131 79 41
0 0 0 0 0 0 0 0 0 0 0 0 0 3 0 0 34 293 1682 1909 2029 2037 2125 2112 2399 2159 2036 2094 1998 1597 1232 878 567 584 809 1207 1132 489 428 267 156 44 11 25
0 0 0 0 0 0 0 0 0 0 0 0 0 0 0 94 213 645 1503 1927 2132 2225 2379 2321 2291 2391 2293 2178 1899 1726 1503 1226 1024 931 1302 1193 1093 814 512 203 37 0 14 0
0 0 0 0 0 0 0 0 0 0 0 0 0 2 45 356 869 1331 1706 2012 2203 2254 2382 2378 2280 2312 2374 2266 2070 1907 1915 1681 1625 1456 1041 964 838 450 261 148 0 0 0 0
0 0 0 0 0 0 0 0 0 0 0 0 0 1 0 310 498 984 1692 2079 2219 2282 2273 2320 2184 2088 2277 2292 2230 2142 1925 1585 1519 1157 933 754 512 379 232 23 0 0 0 0
0 0 0 0 2 2 0 0 0 0 0 0 0 0 93 191 230 505 1055 1764 1995 2286 2216 2104 2006 1831 2084 2287 2147 2021 1798 1494 1117 1124 883 503 402 329 99 0 0 0 0 0
0 0 0 0 0 0 0 0 0 0 0 0 0 0 137 139 208 167 977 1413 2030 2050 2093 2000 1862 1817 2044 2195 2063 1775 1350 468 264 794 725 445 439 247 82 0 0 0 0 0
0 0 0 0 0 0 0 0 0 0 0 0 0 0 235 177 128 214 500 1128 1445 974 1229 1731 1562 1555 1575 1744 1868 1654 1212 112 262 428 845 588 460 170 39 0 0 0 0 0
0 0 0 0 1 0 0 0 4 11 5 1 0 0 130 202 202 203 116 85 86 1097 1390 1611 1565 1529 1383 1623 1726 983 340 180 303 519 922 721 463 203 61 6 0 0 0 0
0 0 0 5 7 0 0 3 27 26 20 9 1 4 11 173 259 257 215 99 63 1043 1444 1666 1653 1470 1220 1116 398 100 386 383 456 825 1023 718 556 264 113 48 7 0 0 0
0 3 0 0 0 28 34 30 18 35 7 8 1 1 62 133 278 209 128 97 173 526 1417 1731 1610 1413 1090 963 553 114 245 519 791 1081 1024 810 841 263 153 95 1 0 0 0
108 0 14 14 14 26 55 56 129 560 352 109 7 53 148 294 281 80 98 56 187 308 373 1731 1597 1351 1087 1037 918 426 276 736 931 1120 1049 872 650 219 189 114 47 14 0 0
127 216 75 23 18 43 61 437 458 317 309 130 87 149 206 298 174 237 111 15 348 352 259 1070 1605 1382 1071 807 644 661 645 1002 1031 1076 1020 924 528 197 153 144 96 51 46 20
48 102 22 77 71 66 175 515 458 208 213 212 276 632 443 275 390 315 57 0 941 1377 1780 1677 1931 1559 1105 479 394 509 948 1176 1026 1142 819 629 426 194 267 185 88 81 52 6
26 68 63 89 110 62 274 394 390 198 184 292 678 621 335 324 242 34 229 787 1281 1558 2031 1782 1977 1663 1218 862 662 391 678 403 14 148 798 620 448 344 331 187 109 111 61 33
2 27 31 48 33 35 142 287 488 26 0 286 917 727 362 152 46 15 1389 1825 1818 1614 1721 2013 1912 1541 1483 1427 1046 410 522 78 34 1 41 420 390 472 465 222 167 137 258 139
0 4 9 1 0 0 31 413 14 0 74 228 498 653 435 290 370 373 1250 1596 1831 1707 1514 1420 1512 1569 1444 1388 1106 756 407 274 125 71 29 144 325 514 418 239 181 533 332 54
0 21 1 0 0 918 1679 1302 1063 575 637 403 230 194 310 164 566 926 1209 1311 1321 1137 1219 1120 1166 1140 1129 1085 1017 773 555 394 323 211 149 225 268 302 343 272 554 359 132 72
22 40 184 396 817 1098 1722 1729 1550 1656 1411 1102 854 687 447 327 627 933 1035 981 777 598 584 500 404 327 303 449 516 403 712 590 348 327 319 177 134 481 567 953 576 299 83 18
3 3 160 321 519 739 1071 1109 1288 1416 1691 1460 1319 1067 719 891 1080 1060 885 632 447 233 102 56 28 26 127 228 297 260 201 174 165 177 155 102 62 257 380 343 150 63 42 39
107 30 94 122 313 387 468 556 1089 1053 1317 1368 1167 1034 1017 985 811 722 543 273 152 41 65 14 5 100 93 61 39 26 9 9 1 0 0 0 13 2 48 98 46 11 31 25
CIN
0 0 0 0 0 0 0 0 0 0 -1 0 0 0 -191 -121 -193 -139 -145 -118 -86 -78 -57 -42 -356 -183 -129 -111 -97 -29 -43 -120 -76 -119 -13 0 -38 -87 -47 -47 -38 -40 -26 -22
0 0 0 0 0 0 0 0 0 0 0 0 0 0 -124 -109 -100 -143 -156 -115 -91 -60 -63 -53 -327 -210 -151 -106 -58 -34 -60 -41 -125 -161 -179 -313 -261 -44 -51 -28 -24 -25 -38 -26
0 0 0 0 0 0 0 0 0 0 0 -47 0 0 0 0 -111 -167 -155 -126 -95 -57 -41 -89 -323 -45 -46 -139 -90 -47 -39 -87 -52 -27 -138 -290 -299 -261 -40 -32 -30 -66 -58 -25
0 0 0 0 0 0 0 0 0 0 0 0 0 0 0 -90 -47 -271 -290 -170 -105 -56 -47 -251 -271 -64 -56 -59 -58 -57 -55 -61 -125 -229 0 -185 -96 -29 -55 -64 -73 -95 -57 -30
0 0 0 0 0 0 0 0 0 0 0 0 0 0 0 -86 -187 -226 -219 -142 -99 -62 -29 -241 -239 -187 -80 -76 -100 -51 -66 -137 -159 -538 -105 -99 -89 -72 -71 -95 -76 -47 -38 -43
0 0 0 0 0 0 0 0 0 0 0 0 0 0 0 -94 -66 -126 -198 -151 -221 -206 -199 -152 -154 -160 -130 -82 -97 -62 -78 -159 -135 -449 -400 -91 -39 -66 -42 -35 -32 -30 -36 -134
0 0 0 0 -38 0 0 0 0 0 0 0 0 -71 0 -47 -81 -125 -123 -110 -133 -152 -41 -37 -228 -106 -120 -125 -102 -115 -100 -119 -149 -121 -81 -49 -57 -76 -59 -57 -45 -52 -64 -130
0 0 0 0 0 0 0 0 0 0 0 0 0 0 0 -300 -387 -77 -73 -65 -180 -153 -64 -32 -228 -183 -135 -120 -135 -138 -116 -98 -94 -82 -33 -39 -54 -50 -47 -90 -121 0 -42 0
0 0 0 0 0 0 0 0 0 0 0 0 0 -77 -79 -143 -195 -209 -248 -291 -216 -111 -86 -43 -45 -183 -142 -131 -122 -125 -81 -67 -44 -62 -45 -44 -32 -54 -84 -90 0 0 0 0
0 0 0 0 0 0 0 0 0 0 0 0 0 -20 0 -84 -90 -128 -175 -189 -174 -104 -80 -49 -36 -173 -119 -93 -82 -41 -41 -48 -42 -90 -54 -28 -51 -76 -85 -102 0 0 0 0
0 0 0 0 -86 -45 0 0 0 0 0 0 0 0 -150 -24 -28 -212 -208 -170 -119 -70 -86 -85 -77 -110 -138 -71 -57 -12 -15 -20 -24 -46 -38 -65 -80 -81 -129 0 0 0 0 0
0 0 0 0 0 0 0 0 0 0 0 0 0 0 -214 -295 -18 -112 -182 -107 -59 -38 -77 -101 -169 -145 -120 -66 -23 -25 -23 -57 -14 -6 -57 -72 -62 -113 -150 0 0 0 0 0
0 0 0 0 0 0 0 0 0 0 0 0 0 0 -232 -393 -458 -444 -105 -83 -52 -96 -202 -100 -106 -85 -182 -102 -36 -37 -17 -146 -2 -14 -24 -44 -26 -88 -160 0 0 0 0 0
0 0 0 0 -32 0 0 0 -62 -57 -58 -29 0 0 -288 -281 -369 -232 -92 -70 -363 -296 -219 -109 -86 -88 -162 -106 -64 -122 -296 -312 -165 -59 -23 -16 -28 -90 -159 -103 0 0 0 0
0 0 0 -20 -29 0 0 -33 -32 -36 -41 -43 -6 -22 -260 -232 -289 -112 -84 -91 -95 -279 -233 -127 -80 -63 -158 -137 -205 -473 -316 -198 -129 -53 -21 -20 -30 -82 -137 -147 -129 0 0 0
0 -89 -100 0 -15 -9 -8 -15 -18 -110 -18 -46 -10 -6 -361 -324 -120 -96 -101 -102 -604 -164 -111 -94 -86 -50 -56 -65 -54 -86 -337 -172 -99 -32 -57 -36 -22 -76 -120 -108 -11 0 0 0
-261 0 -53 -57 -88 -26 -14 -83 -130 -196 -270 -212 -107 -118 -312 -225 -170 -101 -50 -184 -193 -443 -119 -103 -68 -35 -53 -49 -41 -47 -98 -34 -48 -20 -20 -22 -39 -76 -66 -68 -22 -21 0 0
-162 -153 -100 -91 -38 -7 -111 -312 -280 -419 -503 -73 -72 -172 -279 -264 -501 -449 -169 -142 -506 -305 -315 -68 -70 -42 -57 -43 -36 -55 -58 -40 -36 -15 -21 -12 -30 -19 -21 -14 -35 -20 -14 -6
-126 -142 -56 -99 -115 -132 -69 -220 -182 -135 -306 -458 -514 -536 -581 -525 -187 -117 -130 0 -377 -170 -140 -77 -91 -40 -50 -161 -92 -79 -52 -32 -29 -22 -25 -49 -16 -30 -24 -50 -48 -39 -35 -11
-14 -112 -133 -150 -104 -98 -96 -152 -234 -133 -99 -109 -397 -453 -517 -142 -71 -38 -596 -313 -286 -190 -116 -116 -72 -58 -52 -44 -65 -37 -34 -39 -270 -225 -85 -55 -50 -47 -25 -32 -53 -54 -26 -28
-11 -12 -5 -80 -113 -115 -108 -148 -203 -67 -3 -77 -202 -312 -137 -153 -283 -543 -316 -257 -197 -234 -113 -105 -97 -94 -82 -59 -27 -130 -35 -78 -59 -17 -275 -53 -76 -57 -38 -27 -42 -40 -8 -5
-2 -8 -13 -17 0 0 -273 -165 -89 0 -256 -88 -184 -198 -355 -453 -494 -612 -302 -224 -146 -163 -142 -81 -124 -101 -94 -62 -31 -28 -38 -36 -61 -83 -43 -168 -96 -39 -63 -55 -40 0 0 -32
0 -133 -37 0 0 -93 -63 -49 -35 -129 -141 -264 -193 -73 -57 -481 -391 -317 -242 -187 -133 -108 -95 -104 -91 -139 -104 -74 -63 -35 -35 -36 -49 -65 -79 -114 -91 -61 -55 -41 -3 -2 -11 -19
-80 -47 -29 -101 -128 -101 -68 -108 -163 -58 -32 -32 -63 -61 -112 -376 -316 -224 -173 -150 -149 -155 -143 -153 -178 -213 -192 -154 -125 -132 -48 -46 -80 -83 -82 -81 -79 -22 -12 0 -1 -3 -3 0
-44 -36 -73 -114 -134 -81 -32 -44 -94 -82 -58 -67 -135 -156 -131 -184 -122 -117 -110 -145 -170 -200 -217 -230 -220 -197 -168 -151 -134 -116 -140 -116 -99 -79 -82 -67 -70 -43 -13 -5 -8 -11 -2 0
-52 -63 -63 -71 -83 -76 -81 -91 -90 -82 -103 -92 -102 -152 -180 -147 -136 -121 -121 -191 -224 -237 -195 -167 -44 -124 -85 -75 -85 -87 -77 -41 -20 0 0 0 -26 0 -28 -19 -14 0 0 0
Wind_Speed
nan nan nan nan nan nan nan nan nan nan nan nan nan nan 17 25 19 18 20 27 31 36 34 38 36 34 34 35 35 32 33 31 26 33 nan nan nan nan 16 13 15 15 10 11
nan nan nan nan nan nan nan nan nan nan nan nan nan nan nan 28 28 34 30 30 32 31 34 41 38 32 32 34 35 30 30 28 26 nan nan nan nan nan 13 11 14 13 14 15
nan nan nan nan nan nan nan nan nan nan nan nan nan nan nan nan 19 26 24 27 27 33 37 37 40 33 29 33 31 31 32 29 21 nan nan nan nan nan 18 16 13 14 17 20
nan nan nan nan nan nan nan nan nan nan nan nan nan nan nan nan nan 26 26 26 23 31 29 36 37 33 27 30 27 28 31 26 nan nan nan nan nan 5 4 7 11 14 18 19
nan nan nan nan nan nan nan nan nan nan nan nan nan nan nan nan 15 15 19 24 22 27 38 43 35 34 33 31 32 33 33 26 15 nan nan 2 6 4 3 9 12 16 16 nan
nan nan nan nan nan nan nan nan nan nan nan nan nan nan nan nan 11 11 15 23 27 26 32 29 27 30 29 29 31 33 36 29 20 nan 6 6 8 7 5 8 11 12 nan nan
nan nan nan nan nan nan nan nan nan nan nan nan nan nan nan nan nan 13 18 21 24 27 32 31 30 27 31 33 32 32 36 31 22 11 4 5 7 5 6 8 9 nan nan nan
nan nan nan nan nan nan nan nan nan nan nan nan nan nan nan nan 7 14 19 15 22 34 33 35 30 27 27 33 31 33 38 34 22 15 5 7 9 5 6 8 nan nan nan nan
nan nan nan nan nan nan nan nan nan nan nan nan nan nan nan 15 19 18 23 25 25 24 30 35 39 40 24 27 29 35 38 30 29 22 11 13 10 10 8 6 nan nan nan nan
nan nan nan nan nan nan nan nan nan nan nan nan nan nan nan 11 11 10 21 28 29 33 34 36 42 29 23 22 25 34 38 38 34 27 17 13 14 11 8 nan nan nan nan nan
nan nan nan nan nan nan nan nan nan nan nan nan nan nan nan 14 13 13 17 29 37 33 32 37 29 27 27 26 29 36 41 48 23 16 15 16 11 8 nan nan nan nan nan nan
nan nan nan nan nan nan nan nan nan nan nan nan nan nan 18 17 15 16 7 20 23 19 10 31 37 30 27 29 30 34 38 49 26 6 14 15 6 7 nan nan nan nan nan nan
nan nan nan nan nan nan nan nan nan nan nan nan nan nan 18 19 19 24 30 27 26 23 33 36 24 24 24 29 33 34 43 41 12 20 12 7 3 8 nan nan nan nan nan nan
nan nan nan nan nan nan nan nan nan nan nan nan nan nan 13 20 15 9 17 nan nan 21 30 31 21 19 23 26 31 29 31 33 23 10 5 4 4 6 nan nan nan nan nan nan
nan nan nan nan nan nan nan nan nan nan nan nan nan nan nan 22 17 11 11 nan nan 20 31 28 21 16 20 24 29 25 24 22 19 16 12 7 6 3 6 nan nan nan nan nan
nan nan nan nan nan nan nan nan nan nan nan nan nan nan nan 21 21 14 17 nan 25 21 23 18 19 19 19 22 25 25 21 20 19 16 16 14 7 6 7 nan nan nan nan nan
32 nan nan nan nan nan nan nan 39 40 37 33 nan nan 30 28 27 nan nan nan 24 24 36 21 18 19 17 16 22 26 23 23 21 19 16 20 15 13 10 9 nan nan nan nan
36 37 nan nan nan nan nan 27 36 43 38 34 nan 31 29 29 28 24 31 nan 32 19 11 8 21 23 26 27 16 19 24 28 29 28 26 30 23 17 13 5 nan nan nan nan
nan 43 nan nan nan nan 37 29 31 37 36 29 26 25 28 30 26 28 nan nan 51 16 3 4 21 28 33 29 22 19 27 31 38 39 34 30 20 12 10 8 nan nan nan nan
nan nan nan nan 41 nan 28 36 42 42 37 35 32 29 32 31 29 nan 35 21 36 26 16 14 19 25 29 30 31 26 27 25 nan 20 15 6 17 15 19 16 11 9 nan nan
nan nan nan nan nan nan 28 29 38 nan nan 33 29 28 28 25 nan nan 21 24 34 24 18 18 26 23 17 23 34 28 23 nan nan nan nan 18 17 17 24 19 18 21 23 22
nan nan nan nan nan nan nan 38 nan nan nan 33 30 28 26 22 19 28 30 28 34 27 21 17 20 21 19 22 24 25 16 17 19 nan nan 17 13 14 27 27 24 28 27 nan
nan nan nan nan nan 41 40 35 41 40 34 33 34 37 31 26 27 29 29 38 33 29 27 19 20 26 22 23 25 27 17 18 18 19 18 21 20 17 25 30 29 29 28 nan
nan nan 49 47 45 48 41 40 41 37 32 35 34 35 35 33 34 35 37 40 35 32 26 21 24 28 26 25 27 29 24 20 20 18 17 21 22 25 26 27 25 28 nan nan
nan nan 44 42 40 41 38 40 30 31 29 30 31 29 32 36 36 38 39 42 37 35 28 nan nan nan 25 29 31 31 29 24 23 20 20 20 nan 26 30 28 25 nan nan nan
39 nan nan 34 36 36 32 33 32 35 30 31 33 34 35 35 35 38 47 40 38 nan nan nan nan 26 nan nan nan nan nan nan nan nan nan nan nan nan nan nan nan nan nan nan
Wind_Direction
nan nan nan nan nan nan nan nan nan nan nan nan nan nan 325 324 330 354 10 0 6 6 354 348 340 340 337 338 333 346 358 357 351 1 nan nan nan nan 180 216 214 235 253 285
nan nan nan nan nan nan nan nan nan nan nan nan nan nan nan 310 348 353 355 354 354 338 335 333 340 341 344 337 329 347 357 358 8 nan nan nan nan nan 175 197 234 237 254 278
nan nan nan nan nan nan nan nan nan nan nan nan nan nan nan nan 316 327 345 336 328 331 333 329 337 336 339 333 336 349 355 1 3 nan nan nan nan nan 183 199 239 247 265 278
nan nan nan nan nan nan nan nan nan nan nan nan nan nan nan nan nan 291 308 308 319 312 320 320 329 327 342 337 343 346 351 356 nan nan nan nan nan 189 201 237 260 268 264 261
nan nan nan nan nan nan nan nan nan nan nan nan nan nan nan nan 270 300 330 337 311 307 320 319 331 333 338 340 339 342 343 345 339 nan nan 204 177 174 210 269 276 270 267 nan
nan nan nan nan nan nan nan nan nan nan nan nan nan nan nan nan 295 309 350 341 302 321 313 317 322 329 333 334 339 339 341 339 336 nan 298 198 187 190 238 273 273 268 nan nan
nan nan nan nan nan nan nan nan nan nan nan nan nan nan nan nan nan 350 343 327 308 321 314 314 327 337 329 334 339 338 336 335 329 309 236 209 171 248 287 279 261 nan nan nan
nan nan nan nan nan nan nan nan nan nan nan nan nan nan nan nan 286 290 298 311 325 316 324 314 326 320 331 331 337 332 334 333 319 309 227 204 239 254 269 283 nan nan nan nan
nan nan nan nan nan nan nan nan nan nan nan nan nan nan nan 271 273 281 308 314 320 306 318 308 318 313 328 327 331 326 326 323 318 290 256 243 262 286 289 313 nan nan nan nan
nan nan nan nan nan nan nan nan nan nan nan nan nan nan nan 279 278 296 308 311 321 326 331 324 317 316 320 321 315 317 313 316 313 299 265 238 257 273 297 nan nan nan nan nan
nan nan nan nan nan nan nan nan nan nan nan nan nan nan nan 326 314 299 318 333 324 342 351 343 325 313 316 312 312 312 314 314 304 312 235 241 251 275 nan nan nan nan nan nan
nan nan nan nan nan nan nan nan nan nan nan nan nan nan 307 328 329 318 281 273 296 299 288 321 314 300 306 304 310 309 320 319 228 161 212 242 243 276 nan nan nan nan nan nan
nan nan nan nan nan nan nan nan nan nan nan nan nan nan 299 310 284 291 287 284 294 303 323 315 311 292 306 304 309 318 327 351 101 154 170 231 274 301 nan nan nan nan nan nan
nan nan nan nan nan nan nan nan nan nan nan nan nan nan 301 281 276 282 314 nan nan 324 335 311 307 301 302 305 305 327 333 346 14 39 84 273 294 314 nan nan nan nan nan nan
nan nan nan nan nan nan nan nan nan nan nan nan nan nan nan 310 322 307 294 nan nan 293 318 327 303 299 300 299 300 310 316 327 345 351 342 342 356 330 287 nan nan nan nan nan
nan nan nan nan nan nan nan nan nan nan nan nan nan nan nan 294 279 292 295 nan 306 301 333 300 295 303 287 291 293 294 303 317 323 335 325 310 286 288 298 nan nan nan nan nan
224 nan nan nan nan nan nan nan 252 259 263 268 nan nan 296 308 306 nan nan nan 292 305 303 270 281 294 281 273 281 297 304 308 305 304 303 287 271 263 265 268 nan nan nan nan
233 233 nan nan nan nan nan 249 266 263 254 259 nan 291 307 302 304 307 308 nan 299 297 267 246 288 282 272 253 231 281 289 294 297 281 271 262 248 260 270 257 nan nan nan nan
nan 237 nan nan nan nan 255 261 267 266 260 261 279 287 296 301 305 313 nan nan 293 285 150 263 288 295 295 326 321 318 305 305 302 293 273 279 308 11 34 359 nan nan nan nan
nan nan nan nan 244 nan 253 254 267 268 265 279 282 296 311 309 310 nan 297 321 284 267 244 232 255 278 305 311 307 308 306 296 nan 301 311 324 2 358 354 355 350 293 nan nan
nan nan nan nan nan nan 261 253 248 nan nan 290 293 288 290 295 nan nan 275 259 265 249 234 242 247 268 278 300 309 314 324 nan nan nan nan 323 329 352 341 340 360 345 323 301
nan nan nan nan nan nan nan 262 nan nan nan 295 304 301 294 291 277 274 272 265 273 266 249 245 268 271 276 283 298 312 298 295 290 nan nan 298 295 312 326 327 330 326 324 nan
nan nan nan nan nan 252 252 251 253 266 272 272 266 259 262 271 261 257 256 264 261 259 254 244 259 266 263 272 288 302 302 290 280 279 279 285 289 293 305 309 308 308 313 nan
nan nan 247 249 251 250 251 254 256 262 262 263 266 268 274 275 271 261 252 255 260 260 262 265 264 269 275 281 284 285 284 283 280 279 276 276 290 293 290 291 296 302 nan nan
nan nan 248 250 253 253 253 253 252 248 256 267 260 260 272 274 269 278 266 254 254 257 259 nan nan nan 277 279 279 282 282 283 287 286 284 286 nan 289 290 288 286 nan nan nan
231 nan nan 250 252 257 260 254 252 246 240 252 262 261 264 267 267 270 270 251 252 nan nan nan nan 271 nan nan nan nan nan nan nan nan nan nan nan nan nan nan nan nan nan nan